Total_Precipitation_Accumulation
2.32 2.30 2.17 2.21 2.19 2.15 2.02 1.86 1.72 1.65 1.53 1.37 1.24 1.26 1.24 1.20 1.17 1.18 1.20 1.25 1.30 1.31 1.33 1.41 1.50 1.56 1.66 1.73 1.79 1.80 1.89 1.94 1.93 1.78 1.67 1.65 1.61 1.59 1.63 1.49 1.39 1.31 1.23
1.99 2.06 2.11 2.11 2.04 1.93 1.75 1.62 1.49 1.36 1.24 1.15 1.09 1.13 1.11 1.06 1.04 1.01 0.97 1.00 1.04 1.09 1.14 1.20 1.26 1.30 1.38 1.40 1.49 1.56 1.58 1.65 1.70 1.78 1.84 1.77 1.69 1.66 1.56 1.42 1.23 1.09 1.06
1.76 1.76 1.86 1.85 1.74 1.63 1.52 1.45 1.36 1.21 1.14 1.11 1.07 1.05 1.03 0.97 0.91 0.87 0.86 0.83 0.80 0.84 0.91 0.97 1.03 1.09 1.10 1.10 1.15 1.20 1.28 1.38 1.55 1.64 1.68 1.73 1.69 1.70 1.70 1.45 1.28 1.25 0.98
1.73 1.75 1.73 1.68 1.61 1.58 1.42 1.24 1.14 1.06 1.09 1.14 1.07 1.00 0.90 0.85 0.80 0.82 0.86 0.84 0.79 0.77 0.79 0.81 0.82 0.83 0.82 0.84 0.85 0.92 1.03 1.25 1.42 1.50 1.47 1.48 1.54 1.50 1.60 1.54 1.43 1.33 1.14
1.75 1.68 1.64 1.59 1.56 1.56 1.48 1.32 1.15 1.03 0.98 1.04 0.97 0.91 0.85 0.77 0.73 0.75 0.77 0.77 0.76 0.70 0.66 0.65 0.63 0.65 0.67 0.66 0.64 0.74 0.90 1.12 1.25 1.35 1.38 1.33 1.31 1.34 1.37 1.33 1.34 1.34 1.22
1.59 1.57 1.49 1.45 1.50 1.47 1.43 1.30 1.19 1.08 1.02 1.02 0.97 0.88 0.79 0.68 0.71 0.70 0.64 0.67 0.70 0.71 0.67 0.58 0.52 0.51 0.51 0.53 0.56 0.62 0.73 0.86 0.98 1.12 1.19 1.21 1.19 1.19 1.26 1.27 1.28 1.31 1.31
1.46 1.40 1.40 1.39 1.35 1.33 1.20 1.11 1.13 1.13 1.02 0.94 0.87 0.77 0.71 0.68 0.64 0.59 0.62 0.68 0.74 0.77 0.76 0.73 0.60 0.47 0.52 0.55 0.56 0.59 0.64 0.67 0.76 0.92 1.04 1.05 1.08 1.16 1.28 1.28 1.31 1.31 1.30
1.40 1.33 1.26 1.27 1.22 1.17 1.14 1.09 1.07 1.04 0.95 0.91 0.86 0.76 0.67 0.63 0.61 0.58 0.60 0.61 0.70 0.73 0.73 0.74 0.75 0.69 0.59 0.56 0.53 0.58 0.63 0.70 0.75 0.81 0.95 0.99 0.92 0.99 1.15 1.20 1.20 1.18 1.15
1.20 1.15 1.07 1.08 1.13 1.15 1.13 1.13 1.07 0.97 0.90 0.84 0.82 0.76 0.71 0.65 0.60 0.57 0.57 0.62 0.67 0.63 0.57 0.57 0.56 0.58 0.54 0.54 0.56 0.62 0.65 0.70 0.64 0.69 0.74 0.82 0.90 0.93 0.95 1.01 1.12 1.25 1.23
1.06 1.06 0.96 0.97 1.03 1.09 1.10 1.08 0.96 0.86 0.82 0.74 0.73 0.74 0.73 0.71 0.61 0.52 0.53 0.54 0.58 0.55 0.52 0.51 0.49 0.44 0.42 0.41 0.48 0.64 0.75 0.72 0.65 0.68 0.82 0.98 1.05 1.05 0.96 0.99 1.11 1.21 1.22
0.88 0.94 0.96 0.96 0.97 0.96 0.97 0.98 0.91 0.80 0.77 0.75 0.75 0.75 0.74 0.68 0.57 0.48 0.48 0.46 0.46 0.49 0.53 0.53 0.50 0.41 0.35 0.35 0.42 0.55 0.61 0.58 0.66 0.85 1.06 1.15 1.13 1.07 0.98 0.93 1.02 1.13 1.21
0.88 0.98 0.99 0.96 0.86 0.85 0.95 0.98 0.89 0.79 0.74 0.75 0.75 0.74 0.71 0.68 0.56 0.49 0.47 0.44 0.43 0.45 0.48 0.48 0.44 0.39 0.33 0.35 0.37 0.43 0.45 0.54 0.77 1.01 1.13 1.08 0.93 0.82 0.80 0.76 0.80 0.91 1.05
0.93 0.98 0.98 0.92 0.89 0.88 0.90 0.90 0.84 0.77 0.70 0.69 0.69 0.69 0.64 0.57 0.51 0.46 0.44 0.41 0.40 0.40 0.40 0.40 0.39 0.41 0.42 0.47 0.47 0.46 0.53 0.71 0.90 1.02 1.04 0.93 0.80 0.72 0.69 0.71 0.69 0.79 0.85
0.94 0.91 0.91 0.94 0.94 0.86 0.79 0.74 0.72 0.68 0.63 0.60 0.61 0.60 0.53 0.50 0.43 0.36 0.37 0.38 0.37 0.38 0.38 0.44 0.53 0.58 0.59 0.59 0.63 0.70 0.75 0.79 0.81 0.90 0.90 0.82 0.69 0.64 0.64 0.63 0.67 0.73 0.81
0.88 0.81 0.80 0.85 0.84 0.80 0.69 0.60 0.56 0.49 0.41 0.40 0.42 0.42 0.41 0.38 0.34 0.32 0.34 0.37 0.33 0.33 0.38 0.51 0.68 0.73 0.73 0.70 0.67 0.68 0.73 0.72 0.75 0.76 0.74 0.71 0.67 0.63 0.61 0.58 0.61 0.64 0.73
0.78 0.72 0.68 0.72 0.72 0.67 0.61 0.54 0.46 0.34 0.29 0.26 0.24 0.26 0.27 0.29 0.27 0.25 0.29 0.32 0.31 0.35 0.42 0.63 0.74 0.75 0.76 0.68 0.63 0.59 0.59 0.61 0.60 0.61 0.63 0.64 0.65 0.63 0.61 0.58 0.57 0.60 0.66
0.68 0.65 0.59 0.57 0.62 0.59 0.53 0.52 0.52 0.39 0.29 0.24 0.21 0.23 0.25 0.28 0.28 0.29 0.27 0.31 0.34 0.38 0.45 0.58 0.65 0.70 0.69 0.62 0.58 0.57 0.58 0.57 0.53 0.52 0.56 0.59 0.60 0.59 0.59 0.59 0.59 0.61 0.62
0.55 0.49 0.47 0.48 0.48 0.45 0.43 0.42 0.43 0.49 0.50 0.41 0.28 0.24 0.25 0.29 0.32 0.32 0.29 0.35 0.41 0.41 0.46 0.51 0.55 0.58 0.60 0.58 0.55 0.53 0.53 0.53 0.51 0.49 0.50 0.53 0.56 0.55 0.53 0.53 0.54 0.52 0.54
0.43 0.39 0.37 0.35 0.35 0.35 0.36 0.35 0.35 0.39 0.44 0.45 0.42 0.34 0.30 0.33 0.36 0.36 0.33 0.34 0.38 0.40 0.43 0.45 0.46 0.47 0.48 0.49 0.51 0.50 0.47 0.47 0.47 0.47 0.48 0.51 0.52 0.52 0.51 0.45 0.42 0.38 0.43
0.38 0.33 0.28 0.26 0.26 0.27 0.28 0.30 0.32 0.32 0.34 0.38 0.39 0.33 0.31 0.37 0.41 0.39 0.34 0.31 0.32 0.34 0.37 0.41 0.42 0.41 0.40 0.40 0.40 0.41 0.42 0.41 0.38 0.40 0.46 0.51 0.52 0.51 0.46 0.41 0.39 0.41 0.44
0.29 0.26 0.22 0.20 0.21 0.23 0.23 0.24 0.26 0.25 0.30 0.33 0.28 0.24 0.28 0.35 0.40 0.38 0.35 0.31 0.32 0.35 0.38 0.39 0.36 0.35 0.34 0.35 0.35 0.36 0.36 0.36 0.36 0.37 0.41 0.46 0.46 0.43 0.39 0.35 0.32 0.31 0.32
0.27 0.26 0.19 0.17 0.19 0.21 0.22 0.23 0.22 0.22 0.24 0.24 0.23 0.21 0.26 0.29 0.34 0.36 0.34 0.33 0.34 0.37 0.38 0.38 0.38 0.37 0.34 0.33 0.32 0.29 0.30 0.32 0.36 0.39 0.40 0.40 0.37 0.33 0.29 0.28 0.27 0.25 0.25
0.23 0.22 0.19 0.18 0.19 0.21 0.22 0.22 0.19 0.17 0.18 0.19 0.19 0.19 0.21 0.24 0.28 0.34 0.35 0.34 0.35 0.36 0.36 0.35 0.34 0.32 0.30 0.27 0.25 0.25 0.26 0.26 0.27 0.29 0.33 0.35 0.32 0.29 0.25 0.25 0.26 0.25 0.25
0.20 0.20 0.17 0.16 0.18 0.20 0.21 0.18 0.16 0.14 0.17 0.19 0.21 0.22 0.22 0.23 0.26 0.32 0.38 0.38 0.35 0.34 0.32 0.28 0.25 0.24 0.24 0.23 0.22 0.20 0.19 0.20 0.20 0.22 0.26 0.27 0.25 0.25 0.22 0.22 0.23 0.24 0.25
0.18 0.16 0.14 0.14 0.17 0.19 0.19 0.15 0.14 0.15 0.16 0.19 0.21 0.22 0.21 0.20 0.23 0.28 0.34 0.37 0.35 0.32 0.26 0.23 0.21 0.20 0.20 0.18 0.17 0.16 0.17 0.18 0.19 0.19 0.23 0.25 0.22 0.22 0.24 0.25 0.26 0.24 0.24
0.15 0.16 0.16 0.17 0.18 0.16 0.14 0.12 0.12 0.14 0.16 0.17 0.18 0.19 0.18 0.19 0.20 0.22 0.24 0.28 0.32 0.32 0.26 0.20 0.17 0.16 0.17 0.16 0.14 0.14 0.14 0.15 0.16 0.18 0.21 0.24 0.24 0.23 0.23 0.24 0.24 0.25 0.25